SAUDICOMSAT 1

Last updated on July 6, 2021, 3:39 p.m. UTC

1 28369U 04025D   21186.83933740  .00000032  00000-0  19002-4 0  9995
2 28369  98.3894 142.4015 0034020 154.8307 205.4555 14.52628954901524
UTC
Height (km)
Latitude
Longitude
Inclination
Orbital Period
UTC large
Height (km)
Speed (km/s)
/
Latitude / Longitude
Inclination (degrees)
Orbital Period (minutes)
Azimuth
Elevation
Range (km)
Doppler Factor
iOS Compass Heading
iOS Angle